Regional Weather Roundup
Issued by NWS

Home | Current Version | Previous Version | Graphics & Text | Print | Product List | Glossary On
Versions: 1 2 3 4 5 6 7 8 9 10 11 12 13 14 15 16 17 18 19 20 21 22 23 24 25 26 27 28 29 30 31 32 33 34 35 36 37 38 39 40 41 42 43 44 45 46 47 48 49 50
000
ASUS43 KIND 221459
RWRIN

WEATHER ROUNDUP FOR INDIANA
NATIONAL WEATHER SERVICE INDIANAPOLIS IN
1100 AM EDT WED MAR 22 2017

NOTE: "FAIR" INDICATES FEW OR NO CLOUDS BELOW 12,000 FEET WITH NO
SIGNIFICANT WEATHER AND/OR OBSTRUCTIONS TO VISIBILITY.

* - STATION DOES NOT REPORT WEATHER SUCH AS PRECIPITATION OR FOG.

+ - STATION NOT QUALITY CONTROLLED BY THE NATIONAL WEATHER SERVICE.
    USE DATA WITH CAUTION...ESPECIALLY DEWPOINT AND RELATIVE
    HUMIDITY OBSERVATIONS.

INZ001>003-010>013-019-020-221600-
NORTHWEST INDIANA

CITY           SKY/WX    TMP DP  RH WIND       PRES   REMARKS
GARY /AIRPORT/ PTSUNNY   30  16  55 E12G28    30.60R WCI  21
KNOX *+        SUNNY     28  -9  19 NE10      30.57R WCI  19
MONTICELLO +   SUNNY     28  11  49 NE13G18   30.55R WCI  17

$$

LMZ046-743>745-221600-
SOUTHERN LAKE MICHIGAN

STATION/POSITION TIME  TEMP    WIND        PRES    WAVE
                       AIR SEA DIR/SP/G            HT
                 (UTC) (F)     (DEG/KT/KT) (MB)    (FT)
BURNS HARBOR     1440   26      60/ 15/ 22 1035.9R
MICHIGAN CITY    1430   24      30/ 15/ 17   N/A

$$

INZ004-005-014>016-021>024-221600-
NORTH CENTRAL INDIANA

CITY           SKY/WX    TMP DP  RH WIND       PRES   REMARKS
ELKHART        SUNNY     27  10  50 E9        30.57R WCI  17
GOSHEN         SUNNY     26   9  48 NE14      30.56R WCI  14
SOUTH BEND     SUNNY     26  11  52 NE8       30.58R WCI  18

$$

INZ006>009-017-018-025>027-221600-
NORTHEAST INDIANA

CITY           SKY/WX    TMP DP  RH WIND       PRES   REMARKS
ANGOLA *+      SUNNY     25   9  50 NE8       30.54R WCI  16
FORT WAYNE     SUNNY     28  11  48 NE9       30.55R WCI  19
KENDALLVILLE + SUNNY     26  10  51 E9G17     30.54R WCI  17

$$

INZ028-029-035-036-043>045-051>053-221600-
WEST CENTRAL INDIANA

CITY           SKY/WX    TMP DP  RH WIND       PRES   REMARKS
CRAWFORDSVL +  SUNNY     29  16  58 NE10      30.53R WCI  20
GREENCASTLE +  SUNNY     32  18  55 E9        30.51R WCI  24
LAFAYETTE      SUNNY     29  13  51 NE14      30.55R WCI  18
TERRE HAUTE    SUNNY     34  16  47 NE13      30.51R WCI  25

$$

INZ030>032-037>040-046>048-054>057-064-065-221600-
CENTRAL INDIANA

CITY           SKY/WX    TMP DP  RH WIND       PRES   REMARKS
ANDERSON       SUNNY     28  16  59 NE12      30.53R WCI  18
GREENWOOD *+   SUNNY     31  18  58 E10G17    30.51R WCI  22
INDIANAPOLIS   MOSUNNY   31  12  45 NE13G21   30.51R WCI  21
-EAGLE CREEK   SUNNY     31  13  47 E10       30.51R WCI  22
KOKOMO +       MOSUNNY   27  16  63 E14       30.54R WCI  16
SHELBYVILLE    MOSUNNY   31  15  52 E13       30.51R WCI  21

$$

INZ033-034-041-042-049-050-058-059-221600-
EAST CENTRAL INDIANA

CITY           SKY/WX    TMP DP  RH WIND       PRES   REMARKS
MUNCIE         SUNNY     28  15  58 NE13      30.52R WCI  17
RICHMOND +     SUNNY     28  16  59 E14       30.50R WCI  17

$$

INZ060-061-067>069-081>083-085>088-221600-
SOUTHWEST INDIANA

CITY           SKY/WX    TMP DP  RH WIND       PRES   REMARKS
EVANSVILLE     SUNNY     44  23  43 NE14G20   30.45R
HUNTINGBURG *+ SUNNY     39  22  50 NE15      30.45R

$$

INZ062-063-066-070>080-084-089>092-221600-
SOUTH CENTRAL AND SOUTHEAST INDIANA

CITY           SKY/WX    TMP DP  RH WIND       PRES   REMARKS
BLOOMINGTON    SUNNY     37  13  37 NE13      30.47R
MADISON *+     SUNNY     36  16  44 NE9G18    30.48R
SEYMOUR +      SUNNY     37  21  52 N10       30.49R

$$





USA.gov is the U.S. government's official web portal to all federal, state and local government web resources and services.